Search for airport 
image banner adimage banner adimage banner ad
image banner ad

PA71 - Dwight's Delight

Located in Dushore, United States

ICAO - PA71, IATA -

Data provided by Airmate  

General information

Coordinates: N41°31'15" W76°27'44"
Elevation is 1717 feet MSL.
Magnetic variation is -11° East
View others Airports in Pennsylvania

Operational data

Special qualification required
Current time UTC:
Current local time:
Weather at : KIPT - Williamsport Rgnl ( 49 km )
METAR: KIPT 291454Z 07007KT 8SM BKN016 22/17 A2992 RMK AO2 SLP130 T02220172 58010
TAF: KIPT 291120Z 2912/3012 VRB04KT 5SM BR OVC010 FM291400 14003KT P6SM OVC050 FM291900 15006KT 4SM -RA VCTS OVC035CB FM300200 29003KT 5SM BR VCSH OVC015 FM300500 29003KT 5SM BR OVC008
View NOTAMs / SUP AIP / TFR affecting this airport [VIEW]
Communications frequencies: [VIEW]

Runways:

RWY identifierQFULength (ft)Width (ft)SurfaceLDA (ft)
07199090GRASS
25199090GRASS

Airport contact information

Address: Dushore United States

Satellite view of PA71